timestamp,wind_dir_avg,wind_spd_avg,wind_spd_max_dir,wind_spd_gust,battery_voltage,lat,long
2022-05-04 00:04:00+00:00,7.0,6.45,37.0,8.41,12.41,47.59359,-54.27349
2022-05-04 00:14:01+00:00,2.0,6.98,0.0,8.76,12.33,47.59359,-54.27349
2022-05-04 00:24:01+00:00,43.0,8.24,45.0,8.99,12.33,47.59359,-54.27349
2022-05-04 00:34:01+00:00,9.0,6.06,0.0,7.4,12.33,47.59359,-54.27349
2022-05-04 00:44:01+00:00,2.0,7.4,20.0,8.53,12.33,47.59359,-54.27349
2022-05-04 00:54:01+00:00,36.0,8.64,36.0,10.32,12.33,47.59359,-54.27349
2022-05-04 01:04:01+00:00,36.0,8.07,43.0,9.02,12.33,47.59359,-54.27349
2022-05-04 01:14:01+00:00,8.0,6.16,38.0,8.22,12.33,47.59359,-54.27349
2022-05-04 01:24:01+00:00,18.0,6.08,31.0,7.73,12.33,47.59359,-54.27349
2022-05-04 01:34:01+00:00,3.0,4.79,18.0,5.89,12.33,47.59359,-54.27349
2022-05-04 01:44:01+00:00,356.0,6.16,345.0,6.57,12.33,47.59359,-54.27349
2022-05-04 01:54:01+00:00,359.0,4.09,2.0,4.72,12.33,47.59359,-54.27349
2022-05-04 02:04:01+00:00,357.0,5.78,358.0,7.1,12.33,47.59359,-54.27349
2022-05-04 02:14:01+00:00,2.0,5.1,6.0,5.76,12.33,47.59359,-54.27349
2022-05-04 02:24:01+00:00,359.0,6.06,0.0,6.62,12.33,47.59359,-54.27349
2022-05-04 02:34:01+00:00,2.0,6.91,4.0,7.43,12.33,47.59359,-54.27349
2022-05-04 02:44:01+00:00,356.0,6.15,355.0,6.96,12.33,47.59359,-54.27349
2022-05-04 02:54:01+00:00,18.0,6.45,39.0,8.55,12.33,47.59359,-54.27349
2022-05-04 03:04:01+00:00,37.0,6.72,36.0,8.23,12.33,47.59359,-54.27349
2022-05-04 03:14:01+00:00,11.0,4.94,36.0,6.61,12.33,47.59359,-54.27349
2022-05-04 03:24:01+00:00,16.0,4.79,44.0,6.14,12.33,47.59359,-54.27349
2022-05-04 03:34:01+00:00,10.0,4.34,29.0,5.26,12.33,47.59359,-54.27349
2022-05-04 03:44:01+00:00,45.0,5.48,50.0,6.67,12.33,47.59359,-54.27349
2022-05-04 03:54:01+00:00,27.0,6.28,28.0,7.0,12.33,47.59359,-54.27349
2022-05-04 04:04:01+00:00,29.0,6.09,43.0,7.19,12.33,47.59359,-54.27349
2022-05-04 04:14:00+00:00,25.0,6.24,28.0,7.06,12.33,47.59359,-54.27349
2022-05-04 04:24:00+00:00,5.0,6.07,7.0,6.98,12.33,47.59359,-54.27349
2022-05-04 04:34:00+00:00,4.0,6.21,4.0,7.22,12.33,47.59359,-54.27349
2022-05-04 04:44:00+00:00,0.0,6.92,2.0,8.14,12.33,47.59359,-54.27349
2022-05-04 04:54:00+00:00,359.0,6.77,359.0,7.33,12.33,47.59359,-54.27349
2022-05-04 05:04:00+00:00,10.0,6.08,15.0,7.16,12.33,47.59359,-54.27349
2022-05-04 05:14:01+00:00,359.0,6.94,0.0,7.53,12.33,47.59359,-54.27349
2022-05-04 05:24:01+00:00,0.0,5.9,1.0,6.89,12.33,47.59359,-54.27349
2022-05-04 05:34:01+00:00,0.0,6.55,0.0,7.25,12.33,47.59359,-54.27349
2022-05-04 05:44:01+00:00,4.0,4.96,3.0,5.94,12.33,47.59359,-54.27349
2022-05-04 05:54:01+00:00,1.0,6.38,1.0,7.19,12.33,47.59359,-54.27349
2022-05-04 06:04:01+00:00,7.0,5.48,8.0,6.36,12.33,47.59359,-54.27349
2022-05-04 06:14:00+00:00,4.0,5.62,2.0,6.93,12.25,47.59359,-54.27349
2022-05-04 06:24:00+00:00,9.0,6.75,11.0,7.63,12.25,47.59359,-54.27349
2022-05-04 06:34:00+00:00,14.0,6.03,10.0,7.17,12.25,47.59359,-54.27349
2022-05-04 06:44:00+00:00,14.0,6.4,13.0,7.25,12.25,47.59359,-54.27349
2022-05-04 06:54:00+00:00,24.0,4.77,29.0,5.37,12.25,47.59359,-54.27349
2022-05-04 07:04:00+00:00,9.0,5.81,5.0,6.91,12.25,47.59359,-54.27349
2022-05-04 07:14:01+00:00,5.0,5.38,3.0,6.46,12.17,47.59359,-54.27349
2022-05-04 07:24:01+00:00,1.0,6.15,1.0,6.77,12.17,47.59359,-54.27349
2022-05-04 07:34:01+00:00,4.0,5.5,4.0,6.57,12.17,47.59359,-54.27349
2022-05-04 07:44:01+00:00,4.0,5.95,9.0,6.57,12.17,47.59359,-54.27349
2022-05-04 07:54:01+00:00,7.0,6.21,2.0,7.24,12.17,47.59359,-54.27349
2022-05-04 08:04:01+00:00,3.0,5.8,2.0,6.65,12.17,47.59359,-54.27349
2022-05-04 08:14:01+00:00,0.0,6.1,1.0,6.66,12.17,47.59359,-54.27349
2022-05-04 08:24:01+00:00,358.0,5.38,359.0,5.98,12.17,47.59359,-54.27349
2022-05-04 08:34:01+00:00,0.0,5.34,2.0,6.05,12.17,47.59359,-54.27349
2022-05-04 08:44:01+00:00,2.0,6.88,2.0,7.69,12.17,47.59359,-54.27349
2022-05-04 08:54:01+00:00,10.0,5.76,6.0,7.25,12.17,47.59359,-54.27349
2022-05-04 09:04:01+00:00,12.0,6.13,13.0,6.92,12.17,47.59359,-54.27349
2022-05-04 09:14:00+00:00,6.0,5.32,7.0,6.33,12.17,47.59359,-54.27349
2022-05-04 09:24:00+00:00,12.0,4.35,29.0,5.53,12.17,47.59359,-54.27349
2022-05-04 09:34:00+00:00,11.0,5.69,13.0,6.53,12.17,47.59359,-54.27349
2022-05-04 09:44:00+00:00,8.0,4.6,8.0,5.16,12.17,47.59359,-54.27349
2022-05-04 09:54:00+00:00,4.0,3.63,9.0,4.01,12.17,47.59359,-54.27349
2022-05-04 10:04:00+00:00,24.0,4.42,27.0,4.76,12.17,47.59359,-54.27349
2022-05-04 10:14:00+00:00,20.0,3.33,17.0,3.76,12.57,47.59359,-54.27349
2022-05-04 10:24:00+00:00,20.0,2.84,18.0,3.18,12.57,47.59359,-54.27349
2022-05-04 10:34:00+00:00,13.0,3.09,15.0,3.73,12.57,47.59359,-54.27349
2022-05-04 10:44:00+00:00,2.0,3.22,4.0,3.88,12.57,47.59359,-54.27349
2022-05-04 10:54:00+00:00,347.0,1.51,350.0,1.85,12.57,47.59359,-54.27349
2022-05-04 11:04:00+00:00,338.0,1.88,342.0,2.05,12.57,47.59359,-54.27349
2022-05-04 11:14:00+00:00,340.0,1.93,345.0,2.26,13.68,47.59359,-54.27349
2022-05-04 11:24:00+00:00,327.0,1.66,325.0,1.84,13.68,47.59359,-54.27349
2022-05-04 11:34:00+00:00,35.0,1.19,32.0,1.35,13.68,47.59359,-54.27349
2022-05-04 11:44:00+00:00,72.0,0.78,70.0,0.93,13.68,47.59359,-54.27349
2022-05-04 11:54:00+00:00,114.0,0.38,117.0,0.67,13.68,47.59359,-54.27349
2022-05-04 12:04:00+00:00,179.0,1.08,180.0,1.18,13.68,47.59359,-54.27349
2022-05-04 12:14:00+00:00,156.0,1.4,165.0,1.67,13.68,47.59359,-54.27349
2022-05-04 12:24:00+00:00,148.0,1.84,152.0,2.11,13.68,47.59359,-54.27349
2022-05-04 12:34:00+00:00,161.0,1.5,162.0,1.65,13.68,47.59359,-54.27349
2022-05-04 12:44:00+00:00,169.0,1.76,169.0,1.9,13.68,47.59359,-54.27349
2022-05-04 12:54:00+00:00,190.0,2.3,192.0,2.48,13.68,47.59359,-54.27349
2022-05-04 13:04:00+00:00,200.0,1.83,200.0,1.96,13.68,47.59359,-54.27349
2022-05-04 13:14:01+00:00,221.0,1.43,220.0,1.58,13.6,47.59359,-54.27349
2022-05-04 13:24:01+00:00,267.0,0.52,264.0,0.59,13.6,47.59359,-54.27349
2022-05-04 13:34:01+00:00,205.0,2.13,209.0,2.61,13.6,47.59359,-54.27349
2022-05-04 13:44:01+00:00,205.0,2.8,200.0,3.14,13.6,47.59359,-54.27349
2022-05-04 13:54:01+00:00,187.0,1.99,188.0,2.13,13.6,47.59359,-54.27349
2022-05-04 14:04:01+00:00,204.0,2.16,204.0,2.38,13.6,47.59359,-54.27349
2022-05-04 14:14:00+00:00,193.0,2.41,194.0,2.53,13.6,47.59359,-54.27349
2022-05-04 14:24:00+00:00,182.0,1.99,186.0,2.1,13.6,47.59359,-54.27349
2022-05-04 14:34:00+00:00,176.0,1.36,181.0,1.4,13.6,47.59359,-54.27349
2022-05-04 14:44:00+00:00,205.0,2.36,205.0,2.45,13.6,47.59359,-54.27349
2022-05-04 14:54:00+00:00,211.0,3.22,214.0,3.45,13.6,47.59359,-54.27349
2022-05-04 15:04:00+00:00,210.0,2.76,211.0,3.06,13.6,47.59359,-54.27349
2022-05-04 15:14:01+00:00,209.0,3.34,208.0,3.58,14.24,47.59359,-54.27349
2022-05-04 15:24:01+00:00,211.0,3.1,212.0,3.44,14.24,47.59359,-54.27349
2022-05-04 15:34:01+00:00,210.0,3.89,211.0,4.4,14.24,47.59359,-54.27349
2022-05-04 15:44:01+00:00,210.0,4.36,210.0,5.08,14.24,47.59359,-54.27349
2022-05-04 15:54:01+00:00,209.0,4.33,210.0,4.95,14.24,47.59359,-54.27349
2022-05-04 16:04:01+00:00,206.0,5.42,210.0,5.84,14.24,47.59359,-54.27349
2022-05-04 16:14:00+00:00,208.0,5.21,208.0,5.58,13.68,47.59359,-54.27349
2022-05-04 16:24:00+00:00,224.0,4.44,228.0,5.56,13.68,47.59359,-54.27349
2022-05-04 16:34:00+00:00,213.0,5.08,216.0,5.51,13.68,47.59359,-54.27349
2022-05-04 16:44:00+00:00,219.0,5.71,223.0,6.46,13.68,47.59359,-54.27349
2022-05-04 16:54:00+00:00,219.0,5.19,229.0,5.77,13.68,47.59359,-54.27349
2022-05-04 17:04:00+00:00,208.0,5.42,216.0,5.85,13.68,47.59359,-54.27349
2022-05-04 17:14:00+00:00,199.0,5.78,200.0,6.59,13.68,47.59359,-54.27349
2022-05-04 17:24:00+00:00,210.0,6.2,211.0,7.01,13.68,47.59359,-54.27349
2022-05-04 17:34:00+00:00,211.0,6.1,208.0,6.5,13.68,47.59359,-54.27349
2022-05-04 17:44:00+00:00,213.0,5.22,214.0,5.78,13.68,47.59359,-54.27349
2022-05-04 17:54:00+00:00,212.0,4.11,213.0,4.64,13.68,47.59359,-54.27349
2022-05-04 18:04:00+00:00,214.0,4.67,222.0,5.26,13.68,47.59359,-54.27349
2022-05-04 18:14:00+00:00,226.0,4.43,238.0,5.72,13.84,47.59359,-54.27349
2022-05-04 18:24:00+00:00,228.0,4.61,240.0,6.16,13.84,47.59359,-54.27349
2022-05-04 18:34:00+00:00,217.0,5.2,221.0,5.78,13.84,47.59359,-54.27349
2022-05-04 18:44:00+00:00,235.0,6.95,238.0,7.77,13.84,47.59359,-54.27349
2022-05-04 18:54:00+00:00,209.0,6.69,211.0,7.5,13.84,47.59359,-54.27349
2022-05-04 19:04:00+00:00,215.0,6.97,219.0,7.98,13.84,47.59359,-54.27349
2022-05-04 19:14:00+00:00,221.0,7.6,224.0,8.78,13.76,47.59359,-54.27349
2022-05-04 19:24:00+00:00,218.0,7.6,215.0,8.62,13.76,47.59359,-54.27349
2022-05-04 19:34:00+00:00,222.0,7.87,218.0,9.07,13.76,47.59359,-54.27349
2022-05-04 19:44:00+00:00,221.0,7.35,225.0,8.38,13.76,47.59359,-54.27349
2022-05-04 19:54:00+00:00,217.0,7.43,228.0,8.42,13.76,47.59359,-54.27349
2022-05-04 20:04:00+00:00,216.0,7.48,218.0,8.25,13.76,47.59359,-54.27349
2022-05-04 20:14:01+00:00,214.0,8.04,212.0,8.77,13.84,47.59359,-54.27349
2022-05-04 20:24:01+00:00,214.0,8.32,213.0,8.95,13.84,47.59359,-54.27349
2022-05-04 20:34:01+00:00,215.0,8.07,217.0,8.96,13.84,47.59359,-54.27349
2022-05-04 20:44:01+00:00,214.0,7.59,213.0,8.39,13.84,47.59359,-54.27349
2022-05-04 20:54:01+00:00,214.0,8.05,212.0,9.06,13.84,47.59359,-54.27349
2022-05-04 21:04:01+00:00,213.0,8.25,214.0,8.98,13.84,47.59359,-54.27349
2022-05-04 21:14:01+00:00,216.0,7.09,218.0,8.11,13.68,47.59359,-54.27349
2022-05-04 21:24:01+00:00,213.0,8.33,213.0,9.28,13.68,47.59359,-54.27349
2022-05-04 21:34:01+00:00,211.0,8.75,211.0,9.55,13.68,47.59359,-54.27349
2022-05-04 21:44:01+00:00,217.0,8.06,216.0,9.06,13.68,47.59359,-54.27349
2022-05-04 21:54:01+00:00,211.0,8.06,213.0,9.5,13.68,47.59359,-54.27349
2022-05-04 22:04:01+00:00,214.0,7.37,219.0,8.11,13.68,47.59359,-54.27349
2022-05-04 22:14:01+00:00,217.0,7.28,219.0,8.23,13.37,47.59359,-54.27349
2022-05-04 22:24:01+00:00,216.0,6.22,214.0,6.91,13.37,47.59359,-54.27349
2022-05-04 22:34:01+00:00,216.0,6.65,217.0,7.7,13.37,47.59359,-54.27349
2022-05-04 22:44:01+00:00,216.0,6.94,216.0,7.95,13.37,47.59359,-54.27349
2022-05-04 22:54:01+00:00,215.0,6.89,228.0,7.99,13.37,47.59359,-54.27349
2022-05-04 23:04:01+00:00,213.0,6.81,226.0,8.11,13.37,47.59359,-54.27349
2022-05-04 23:14:00+00:00,215.0,6.75,226.0,8.45,12.73,47.59359,-54.27349
2022-05-04 23:24:00+00:00,217.0,6.45,229.0,7.95,12.73,47.59359,-54.27349
2022-05-04 23:34:00+00:00,219.0,6.58,229.0,7.99,12.73,47.59359,-54.27349
2022-05-04 23:44:00+00:00,213.0,7.19,214.0,7.9,12.73,47.59359,-54.27349
2022-05-04 23:54:00+00:00,214.0,6.71,231.0,8.17,12.73,47.59359,-54.27349
